logo tempoitalia

Diretta Meteo Kefalhnia, Greciavenerdì 19 luglio ore 08:50

Mappa
Sereno 35 °C Poco Nuvoloso 24 Ore: T.min 29 T.max 39
Ponente Nord Km/h 14.8 Punto di rugiada: 18 °C Umidità: 36% Visibilità: 10 Km
Il sole sorge alle: 06:29 Il sole tramonta alle: 20:59
19 Luglio 2024 08:50 tempo osservato: Poco Nuvoloso Poco Nuvoloso 35 36 1011 vento: Nord N 14.8
19 Luglio 2024 08:20 tempo osservato: Poco Nuvoloso Poco Nuvoloso 29 66 1011 vento: Nord N/NO 9.3
18 Luglio 2024 23:50 tempo osservato: Sereno Sereno 34 43 1011 vento: Nord N 11.1
18 Luglio 2024 23:20 tempo osservato: Sereno Sereno 33 43 1011 vento: Nord N 9.3
18 Luglio 2024 22:50 tempo osservato: Sereno Sereno 33 43 1011 vento: Nord NO 11.1
18 Luglio 2024 22:20 tempo osservato: Sereno Sereno 33 43 1011 vento: Nord N/NO 11.1
18 Luglio 2024 21:50 tempo osservato: Sereno Sereno 33 41 1010 vento: Nord NO 11.1
18 Luglio 2024 21:20 tempo osservato: Sereno Sereno 34 36 1010 vento: Nord N/NO 14.8
18 Luglio 2024 20:50 tempo osservato: Sereno Sereno 34 36 1010 vento: Nord N/NO 22.2
18 Luglio 2024 20:20 tempo osservato: Sereno Sereno 34 49 1010 vento: Nord NO 20.3
18 Luglio 2024 19:50 tempo osservato: Sereno Sereno 34 49 1010 vento: Nord NO 14.8
18 Luglio 2024 19:20 tempo osservato: Sereno Sereno 35 47 1010 vento: Nord NO 18.5
18 Luglio 2024 18:50 tempo osservato: Sereno Sereno 35 47 1010 vento: Nord NO 22.2
18 Luglio 2024 18:20 tempo osservato: Sereno Sereno 37 44 1010 vento: Nord NO 25.9
18 Luglio 2024 17:50 tempo osservato: Sereno Sereno 38 33 1011 vento: Nord N/NO 27.8
18 Luglio 2024 17:20 tempo osservato: Sereno Sereno 38 31 1011 vento: Nord N/NO 29.6
18 Luglio 2024 16:50 tempo osservato: Sereno Sereno 39 27 1011 vento: Nord NO 20.3
18 Luglio 2024 16:20 tempo osservato: Sereno Sereno 39 29 1011 vento: Nord O 13
18 Luglio 2024 15:50 tempo osservato: Sereno Sereno 35 56 1011 vento: Nord N 0
18 Luglio 2024 15:20 tempo osservato: Sereno Sereno 33 70 1011 vento: Nord N 0
18 Luglio 2024 14:50 tempo osservato: Sereno Sereno 35 49 1011 vento: Nord S 9.3
18 Luglio 2024 14:20 tempo osservato: Sereno Sereno 34 46 1011 vento: Nord S/SE 9.3
18 Luglio 2024 13:50 tempo osservato: Sereno Sereno 34 52 1012 vento: Nord S 9.3
18 Luglio 2024 13:20 tempo osservato: Sereno Sereno 34 52 1012 vento: Nord S/SE 9.3
18 Luglio 2024 12:50 tempo osservato: Sereno Sereno 33 62 1012 vento: Nord S 9.3
18 Luglio 2024 12:20 tempo osservato: Sereno Sereno 32 66 1012 vento: Nord S/SE 11.1
18 Luglio 2024 11:50 tempo osservato: Sereno Sereno 32 62 1012 vento: Nord S 7.4
18 Luglio 2024 11:20 tempo osservato: Sereno Sereno 33 49 1012 vento: Nord S/SE 9.3
18 Luglio 2024 10:50 tempo osservato: Sereno Sereno 33 41 1012 vento: Nord S/SE 9.3
18 Luglio 2024 10:20 tempo osservato: Sereno Sereno 33 46 1012 vento: Nord S/SE 9.3
18 Luglio 2024 09:50 tempo osservato: Sereno Sereno 32 55 1012 vento: Nord N 5.5